Location: ???? ??
(36.0534°N, 43.5630°E)
Time: 08:07:40
(UTC+00:00)

Cosmos 2056 Rocket - Pass Details

Date: 18 September 2019
Orbit: 742 x 800 km, 74.0° (Epoch: 18 October)

Event Time Altitude Azimuth Distance (km) Brightness Sun altitude
Rises 16:23:38 0° 180° (S) 3,285 6.6 -15.7°
Reaches altitude 10° 16:26:05 10° 174° (S) 2,363 5.8 -16.2°
Maximum altitude 16:31:13 47° 102° (ESE) 1,058 3.8 -17.2°
Drops below altitude 10° 16:36:23 10° 30° (NNE) 2,376 5.9 -18.2°
Sets 16:38:51 0° 25° (NNE) 3,306 6.7 -18.6°
